www.pogodaiklimat.ru

Погода и климат >> Архив погоды >> Канада >> Cambridge Bay Arpt


ПОГОДА в Cambridge Bay Arpt

  • Прогноз погоды в Cambridge Bay Arpt
  • Монитор погоды в Cambridge Bay Arpt
  • Климат города

АРХИВ ПОГОДЫ в Cambridge Bay Arpt

Время (UTC), дата Ветер
(напр.,м/с)
 
Видим.   Явления Облачность Т
(С)
Тd
(С)
f
(%)
Тe
(С)
Тes
(С)
Комфортность P
(гПа)
Po
(гПа)
Тmin
(С)
Tmax
(С)
R
(мм)
R24
(мм)
S
(см)
09 19.04 СЗ 9 4800 м 6/6 600 м
[]
-19.1 -21.6 81 -32 -32 опасность
обморожения
1003.5 999.4
12 19.04 З 9 19 км ледяные иглы {снег} 5/3 1000 м
[Sc Ac trans Ci fib]
-21.9 -24.8 77 -35 -35 опасность
обморожения
1006.1 1002.0 -21.9 -10.2 0.0 31
15 19.04 З 9 6000 м ясно -23.0 -26.2 75 -37 -37 опасность
обморожения
1008.6 1004.4
18 19.04 З 10 4800 м ледяные иглы {снег} 5/1 1000 м
[Sc Ac trans Ci fib]
-21.4 -24.7 75 -35 -35 опасность
обморожения
1010.8 1006.6 -23.1 -14.1 0.0 30
21 19.04 З 9 4000 м 3/0 2000 м
[]
-20.9 -24.4 73 -34 -34 опасность
обморожения
1012.4 1008.1
00 20.04 З 8 16 км позёмок 1/0
[Ci fib]
-20.4 -23.5 76 -33 -32 опасность
обморожения
1013.3 1009.0 -23.1 -20.2
03 20.04 ЮЗ 5 24 км 3/3 200 м
[]
-22.9 -25.5 79 -33 -33 опасность
обморожения
1014.3 1010.0
06 20.04 В 1 24 км 4/3 200 м
[Sc Ci fib]
-27.7 -30.5 77 -32 -32 опасность
обморожения
1014.3 1010.0 -27.7 -14.1 111
09 20.04 СВ 4 4800 м 9/9 200 м
[]
-27.6 -30.5 76 -38 -38 опасность
обморожения
1013.7 1009.4
12 20.04 С 5 3200 м слабый снег 8/3 600 м
[Sc Ac As]
-24.4 -27.2 78 -36 -36 опасность
обморожения
1012.9 1008.6 -28.5 -14.1 0.4 29
15 20.04 С 6 19 км 4/4 600 м
[]
-24.3 -27.5 75 -36 -35 опасность
обморожения
1013.0 1008.7
18 20.04 С 5 19 км ледяные иглы {снег} ясно -21.8 -25.7 71 -32 -29 опасность
обморожения
1013.8 1009.5 -28.5 -21.8 0.0 29
21 20.04 С 4 24 км 3/0
[]
-20.4 -24.8 68 -30 -26 1014.5 1010.2
00 21.04 СЗ 4 24 км {снег} 8/1 600 м
[Cb calv Ac As]
-20.8 -24.6 71 -29 -29 1015.7 1011.4 -28.5 -20.1 0.0 29
03 21.04 СЗ 6 24 км 9/9 200 м
[]
-23.7 -26.8 76 -35 -35 опасность
обморожения
1016.3 1012.0
06 21.04 СЗ 8 24 км 9/0
[Ac As]
-23.9 -27.1 75 -37 -37 опасность
обморожения
1017.0 1012.7 -28.5 -20.1 6
09 21.04 СЗ 5 19 км 3/0
[]
-27.0 -29.9 76 -38 -38 опасность
обморожения
1018.5 1014.2
12 21.04 СЗ 6 24 км ледяные иглы 1/0
[Ac trans]
-28.4 -31.5 75 -42 -42 опасность
обморожения
1019.8 1015.5 -29.4 -20.1 0.0 29
15 21.04 З 4 16 км 3/3 200 м
[]
-27.4 -30.9 72 -38 -37 опасность
обморожения
1020.9 1016.6
18 21.04 З 9 9000 м ледяные иглы {снег} 1/1 200 м
[Frnb Ac trans]
-22.4 -25.9 73 -36 -35 опасность
обморожения
1021.4 1017.1 -29.4 -22.4 0.0 29
21 21.04 З 8 16 км 4/4 200 м
[]
-20.2 -24.0 72 -32 -32 опасность
обморожения
1022.9 1018.6
00 22.04 З 8 24 км ледяные иглы {снег} 3/0
[Ac trans]
-19.6 -23.1 74 -32 -32 опасность
обморожения
1023.6 1019.3 -29.4 -18.9 0.0 29
03 22.04 З 5 24 км 1/0
[]
-22.4 -25.3 77 -33 -33 опасность
обморожения
1024.5 1020.2
06 22.04 З 7 24 км {снег} 1/0
[Ac trans Ci fib]
-24.7 -27.3 79 -37 -37 опасность
обморожения
1024.8 1020.5 -29.4 -18.9 0.0 211
09 22.04 З 6 24 км 1/0
[]
-26.5 -29.4 76 -39 -39 опасность
обморожения
1025.5 1021.2
12 22.04 ЮЗ 4 16 км 3/3 600 м
[Sc]
-27.7 -30.7 75 -38 -38 опасность
обморожения
1025.7 1021.4 -27.9 -18.9 29
15 22.04 З 6 14 км 3/3 <50 м
[]
-24.1 -27.3 75 -36 -35 опасность
обморожения
1025.6 1021.3
18 22.04 З 8 24 км позёмок ясно -21.0 -24.7 72 -34 -32 опасность
обморожения
1025.6 1021.3 -27.9 -21.0
21 22.04 З 9 24 км ясно -18.8 -22.2 74 -31 -31 опасность
обморожения
1025.4 1021.1
00 23.04 З 6 24 км позёмок ясно -18.3 -21.8 74 -29 -28 1025.6 1021.3 -27.9 -18.0
03 23.04 З 5 24 км ясно -21.4 -24.1 79 -32 -32 опасность
обморожения
1024.9 1020.6
06 23.04 З 5 19 км 1/1 600 м
[Sc]
-24.4 -26.9 80 -36 -36 опасность
обморожения
1023.8 1019.5 -27.9 -18.0 221
09 23.04 З 5 19 км 1/1 600 м
[]
-27.2 -30.1 76 -39 -39 опасность
обморожения
1023.5 1019.2
12 23.04 З 6 19 км 3/0
[Ac trans Ci fib]
-27.5 -30.5 75 -40 -40 опасность
обморожения
1022.5 1018.2 -27.9 -18.0 29
15 23.04 З 7 19 км 4/4 <50 м
[]
-25.3 -28.2 77 -38 -38 опасность
обморожения
1021.5 1017.2
18 23.04 З 6 24 км 8/0
[Ac trans Ci fib]
-20.8 -24.1 75 -32 -30 опасность
обморожения
1020.6 1016.3 -27.9 -20.8
21 23.04 З 8 24 км 9/0
[]
-17.2 -20.5 75 -29 -28 1019.8 1015.5
00 24.04 З 6 24 км 4/3 1000 м
[Sc Ac trans]
-17.2 -20.5 75 -27 -27 1019.0 1014.7 -27.9 -16.5
03 24.04 З 4 24 км 1/0
[]
-21.0 -23.5 80 -30 -30 1018.5 1014.2
06 24.04 З 6 19 км позёмок 4/0
[Ac trans]
-22.5 -24.9 81 -34 -34 опасность
обморожения
1017.8 1013.5 -27.9 -16.5 211
09 24.04 З 4 19 км 4/0
[]
-24.2 -26.9 78 -34 -34 опасность
обморожения
1017.6 1013.3
12 24.04 З 5 19 км ледяные иглы {снег} 3/1 <50 м
[Sc Ac trans]
-23.5 -26.1 79 -35 -34 опасность
обморожения
1017.6 1013.3 -25.3 -16.5 0.0 24
15 24.04 СЗ 5 19 км 3/3 <50 м
[]
-21.6 -24.2 79 -32 -31 опасность
обморожения
1017.5 1013.2
18 24.04 СЗ 3 24 км ледяные иглы {снег} 3/1 50 м
[Sc Ac trans]
-19.2 -22.2 77 -26 -21 1017.4 1013.1 -25.3 -18.9 0.0 24
21 24.04 СЗ 5 16 км 8/8 50 м
[]
-16.5 -19.8 76 -25 -25 1017.4 1013.1
00 25.04 СЗ 7 24 км {снег} 10/10 200 м
[Sc]
-16.1 -19.1 78 -26 -26 1017.3 1013.0 -25.3 -15.5 0.0 24
03 25.04 С 6 24 км 9/9 200 м
[]
-15.6 -19.1 74 -25 -25 1016.8 1012.5
06 25.04 З 8 19 км 3/1 200 м
[Sc Ac trans]
-18.3 -20.8 81 -30 -30 1016.8 1012.5 -25.3 -14.9 3
09 25.04 СЗ 7 24 км 1/1 300 м
[]
-21.9 -24.4 80 -34 -34 опасность
обморожения
1016.9 1012.6
12 25.04 СЗ 5 24 км 8/6 200 м
[Sc Ac trans]
-21.3 -23.8 80 -32 -32 опасность
обморожения
1017.4 1013.1 -22.6 -14.9 24
15 25.04 СЗ 5 24 км 8/8 200 м
[]
-20.3 -23.2 78 -31 -30 опасность
обморожения
1017.5 1013.2
18 25.04 СЗ 4 24 км 8/8 200 м
[Sc]
-17.6 -20.7 77 -26 -25 1017.3 1013.0 -22.6 -17.6 24
21 25.04 С 3 24 км 3/3 600 м
[]
-15.4 -18.8 75 -22 -18 1017.0 1012.7
00 26.04 СЗ 3 24 км ясно -15.5 -18.6 77 -22 -19 1017.1 1012.8 -22.6 -14.8 24
03 26.04 СВ 2 24 км ясно -19.2 -21.3 83 -25 -25 1017.0 1012.7
06 26.04 С 2 24 км ясно -23.7 -26.3 79 -29 -29 1017.3 1013.0 -23.7 -14.8 8

 

Местоположение метеостанции Cambridge Bay Arpt (Канада): широта 69.10 долгота -105.10 высота над уровнем моря 27 м.

В архиве по умолчанию представлена погода в Cambridge Bay Arpt за последнюю неделю. Архивные данные за месяц целиком и за предыдущие месяцы, начиная с января 2011 года, Вы можете получить, выбрав интересующий диапазон дат из раскрывающегося списка и нажав кнопку "Ввод!".


*Определитесь, кто Вы:
робот инопланетянин человек

Внимание! Время в таблицах - всемирное. Для получения местного времени необходимо прибавить поправку, которая в Cambridge Bay Arpt равна -7 ч.

Смотрите также архив погоды в соседних городах и на ближайших метеорологических станциях:

Погода в Cape Peel West (Канада) (108 км)
Погода в Hat Island (Канада) (223 км)
Погода в Gjoa Haven Climate (Канада) (374 км)
Погода в Kugluktuk (Канада) (432 км)
Погода в Kugluktuk Airport (Канада) (432 км)
Погода в Lupin (Канада) (452 км)
Погода в Lupin (maps) (Канада) (452 км)
Погода в Spence bay (Канада) (454 км)
Погода в Robertson Lake (Канада) (460 км)
Погода в Shepherd Bay (Канада) (466 км)

Пояснения к столбцам:

Ветер - указаны скорость ветра в м/с - средняя за 10 мин, порывы в срок и между сроками (в фигурных скобках) и направление, откуда дует ветер: С - северный, СВ - северо-восточный, В - восточный, ЮВ - юго-восточный, Ю - южный, ЮЗ - юго-западный, З - западный, СЗ - северо-западный.
Видимость - горизонтальная дальность видимости в метрах или километрах. При видимости от 1 до 10 км при отсутствии осадков обычно наблюдается дымка, при ухудшении видимости до 1 км и менее - туман. В сухую погоду видимость может ухудшаться дымом, пылью или мглою.
Явления - указаны атмосферные явления, наблюдавшиеся в срок или в последний час перед сроком; фигурными скобками обозначены явления, наблюдавшиеся между сроками (за 1-3 часа до срока); квадратными скобками обозначены град или гололедные отложения с указанием их диаметра в мм.
Облачность - указаны через наклонную черту общая и нижняя облачность в баллах и высота нижней границы облаков в метрах; квадратными скобками обозначены формы облаков: Ci - перистые, Cs - перисто-слоистые, Cc - перисто-кучевые, Ac - высококучевые, As - высокослоистые, Sc - слоисто-кучевые, Ns - слоисто-дождевые, Cu - кучевые, Cb - кучево-дождевые. Подробнее классификацию облаков см. в Атласе облаков (PDF).
T - Температура воздуха - температура, измеренная на высоте 2 м над землей.
Td - Температура точки росы - температура, при понижении до которой содержащийся в воздухе водяной пар достигнет насыщения.
f - Относительная влажность воздуха - влажноcть воздуха, измеренная на высоте 2 м над землей.
Te - Эффективная температура - температура, которую ощущает одетый по сезону человек в тени. Характеристика душности погоды. При расчете учитывается влияние влажности воздуха и скорости ветра на теплоощущения человека.
Tes - Эффективная температура на солнце - температура, которую ощущает человек, с поправкой на солнечный нагрев. Характеристика знойности погоды. Зависит от высоты солнца над горизонтом, облачности и скорости ветра. Ночью, в пасмурную погоду, а также при ветре 12 м/с и более поправка равна нулю.
P - Атмосферное давление - приведенное к уровню моря атмосферное давление.
Po - Атмосферное давление - измеренное на уровне метеостанции атмосферное давление.
Tmin - Минимальная температура - минимум температуры воздуха на высоте 2 м над землей.
Tmax - Максимальная температура - максимум температуры воздуха на высоте 2 м над землей.
R - Количество осадков - Количество выпавших осадков за период времени, мм. При наведении курсора мыши на число - период времени, за который выпало указанное количество осадков.
R24 - Количество осадков - Количество выпавших осадков за 24 часа, мм.
S - Снежный покров - Высота снежного покрова, см. При наведении курсора мыши на число - состояние снежного покрова и степень покрытия местности в баллах.